YAOGAN-30 C

导读

YAOGAN-30 C卫星由中国于2017年9月29日发射。作为遥感系列卫星成员,它主要承担对地观测任务,服务于国土资源普查、农作物估产、灾害监测、环境调查以及国防相关领域,为科学研究、经济发展和社会防灾减灾等工作提供高质量遥感数据支撑,推进中国遥感应用体系建设。

基本信息
目录编号:
42947
目录名称:
YAOGAN-30 C
国际标识:
2017-058C
轨道中心:
EARTH
卫星名称:
YAOGAN-30 C
卫星全名:
--
卫星状态:
在轨 (已飞行3273 天)
发射日期:
2017-09-29 UTC
国别 :
中国 (CN)
星等 :
--
该卫星已列入 空间交会检测服务 Space Conjunction Data Service (SCDS) ,当前飞行风险评估等级: 无高风险
轨道信息
数据来源 国际轨道数据
星历时间: 2026-09-15T07:18:19+0800
5小时前
查看轨道信息
半长轴: 6929.768km
偏心率: 0.0005812
轨道倾角: 34.997°
近地点辐角 276.042°
升交点赤经 191.718°
平近点角 83.963°
近地点: 547.603km
远地点: 555.659km
周期: 95.684分钟
每日圈数: 15.049595
详细信息
使用方式:
暂无
2D轨道图
3D轨道图
轨道高度分析图
轨道倾角分析图
轨道综合分析图
查看轨道综合分析图
交会数据列表
事件ID 空间交会对象 最接近时刻(TCA) 交会距离 交会风险概率(CRP) 交会风险指数(CRI) 操作
CDM_260915-123204-294704-827027
2026-09-15T
12:32:44+0000
1.637 km
极远距离
4.598204E-6 低风险 0.48
CDM_260916-171604-294705-369021
2026-09-16T
17:16:41+0000
1.954 km
极远距离
2.233509E-6 低风险 0.42
与全量物体交会距离演化趋势 订阅飞行安全评估服务
与全量物体交会风险概率演化趋势 订阅飞行安全评估服务